Regional Weather Roundup
Issued by NWS

Home | Current Version | Previous Version | Text Only | Print | Product List | Glossary On
Versions: 1 2 3 4 5 6 7 8 9 10 11 12 13 14 15 16 17 18 19 20 21 22 23 24 25 26 27 28 29 30 31 32 33 34 35 36 37 38 39 40 41 42 43 44 45 46 47 48 49 50
727
ASUS43 KMKX 211211
RWRWI

WISCONSIN REGIONAL WEATHER ROUNDUP
NATIONAL WEATHER SERVICE MILWAUKEE/SULLIVAN WI
700 AM CDT SAT OCT 21 2017

NOTE: "FAIR" INDICATES FEW OR NO CLOUDS BELOW 12,000 FEET WITH NO
SIGNIFICANT WEATHER AND/OR OBSTRUCTIONS TO VISIBILITY.

WIZ001-002-006>008-014>016-023>028-211300-
NORTHWEST WISCONSIN

CITY           SKY/WX    TMP DP  RH WIND       PRES   REMARKS
SUPERIOR ARPT  PTCLDY    62  51  68 S8        29.67S
6HR MIN TEMP:  62; 6HR MAX TEMP:  65;

ASHLAND        PTCLDY    63  47  55 S10G21    29.72F
6HR MIN TEMP:  63; 6HR MAX TEMP:  67; 6HR PCP: TRACE;

HAYWARD        MOCLDY    61  48  62 S10G18    29.75S
6HR MIN TEMP:  59; 6HR MAX TEMP:  64; 6HR PCP: TRACE;

SIREN          CLOUDY    63  51  64 S13G25    29.70S
6HR MIN TEMP:  62; 6HR MAX TEMP:  65;

CUMBERLAND     CLOUDY    59  48  67 SE12G17   29.75S
RICE LAKE      CLOUDY    59  48  67 SE10      29.77F
6HR MIN TEMP:  59; 6HR MAX TEMP:  65;

CHETEK         CLOUDY    60  50  70 SE12      29.77S
6HR MIN TEMP:  58; 6HR MAX TEMP:  64;

LADYSMITH      CLEAR     60  48  65 SE10G16   29.81S
6HR MIN TEMP:  59; 6HR MAX TEMP:  63;

EAU CLAIRE     PTCLDY    61  49  64 S13       29.77S
6HR MIN TEMP:  61; 6HR MAX TEMP:  66;

MENOMONIE      MOCLDY    61  51  70 SE6       29.77S
6HR MIN TEMP:  60; 6HR MAX TEMP:  65;

NEW RICHMOND   MOCLDY    62  50  66 S16G22    29.72S
6HR MIN TEMP:  60; 6HR MAX TEMP:  62;

OSCEOLA        MOCLDY    62  52  69 SE15      29.72F
6HR MIN TEMP:  61; 6HR MAX TEMP:  64;

$$

WIZ003>005-009-010-017-018-211300-
NORTH CENTRAL WISCONSIN

CITY           SKY/WX    TMP DP  RH WIND       PRES   REMARKS
MANITOWISH WTR PTCLDY    58  46  64 S13G22    29.84R
6HR MIN TEMP:  57; 6HR MAX TEMP:  62;

ARBOR VITAE    CLOUDY    59  47  63 S13G18    29.85F
6HR MIN TEMP:  59; 6HR MAX TEMP:  62;

WOODRUFF       CLOUDY    59  47  63 S13G18    29.85F
6HR MIN TEMP:  59; 6HR MAX TEMP:  62;

RHINELANDER    CLOUDY    59  46  62 S8        29.89S
6HR MIN TEMP:  59; 6HR MAX TEMP:  63;

EAGLE RIVER    NOT AVBL
LAND O LAKES   MOCLDY    59  45  59 S9        29.88S
6HR MIN TEMP:  59; 6HR MAX TEMP:  61;

PHILLIPS       CLEAR     58  47  67 S15       29.82S
6HR MIN TEMP:  58; 6HR MAX TEMP:  63;

TOMAHAWK       CLEAR     56  46  67 S3        29.88S
6HR MIN TEMP:  56; 6HR MAX TEMP:  58;

MEDFORD        CLEAR     55  46  71 S10       29.85F
6HR MIN TEMP:  55; 6HR MAX TEMP:  59;

MERRILL        CLEAR     58  46  66 SE5       29.89S
6HR MIN TEMP:  57; 6HR MAX TEMP:  63;

$$

WIZ029-030-035-036-043>047-211300-
CENTRAL WISCONSIN

CITY           SKY/WX    TMP DP  RH WIND       PRES   REMARKS
WAUSAU         CLEAR     56  46  69 SE6       29.88F
6HR MIN TEMP:  56; 6HR MAX TEMP:  63;

MOSINEE        PTCLDY    55  48  76 SE9       29.90F
MARSHFIELD     PTCLDY    57  47  69 S8        29.86F
6HR MIN TEMP:  57; 6HR MAX TEMP:  64;

STEVENS POINT  PTCLDY    56  46  71 S6        29.91F
6HR MIN TEMP:  56; 6HR MAX TEMP:  62;

WAUPACA        CLEAR     57  48  71 SE6       29.93S
6HR MIN TEMP:  57; 6HR MAX TEMP:  65;

WAUTOMA        PTCLDY    58  50  75 S6        29.93S
6HR MIN TEMP:  58; 6HR MAX TEMP:  66;

WISC RAPIDS    PTCLDY    60  49  66 S10       29.90F
6HR MIN TEMP:  60; 6HR MAX TEMP:  66;

CAMP DOUGLAS   PTCLDY    62  50  66 S15       29.88S
6HR MIN TEMP:  62; 6HR MAX TEMP:  66;

$$

WIZ011>013-019>022-031-037>040-048>050-211300-
NORTHEAST WISCONSIN

CITY           SKY/WX    TMP DP  RH WIND       PRES   REMARKS
ANTIGO         CLEAR     52  46  79 SE10      29.92F
6HR MIN TEMP:  49; 6HR MAX TEMP:  54;

SHAWANO        MOCLDY    62  48  60 S5        29.94R
6HR MIN TEMP:  62; 6HR MAX TEMP:  66;

OCONTO         CLOUDY    58  51  77 S6        29.95S
6HR MIN TEMP:  55; 6HR MAX TEMP:  63;

STURGEON BAY   PTCLDY    57  52  83 S12       29.98S
6HR MIN TEMP:  56; 6HR MAX TEMP:  59;

GREEN BAY      PTCLDY    60  50  69 S9        29.96S
6HR MIN TEMP:  60; 6HR MAX TEMP:  66;

MANITOWOC      CLOUDY    57  51  80 S7        29.99F
6HR MIN TEMP:  53; 6HR MAX TEMP:  57;

APPLETON       MOCLDY    59  45  58 S9        29.94S
CLINTONVILLE   CLOUDY    57  46  67 S8        29.93S
OSHKOSH        PTCLDY    59  49  69 S15       29.94F
6HR MIN TEMP:  57; 6HR MAX TEMP:  63;

$$

WIZ032>034-041-042-053>061-211300-
SOUTHWEST WISCONSIN

CITY           SKY/WX    TMP DP  RH WIND       PRES   REMARKS
LA CROSSE      MOCLDY    65  52  62 S12       29.83R
6HR MIN TEMP:  64; 6HR MAX TEMP:  67; 6HR PCP: TRACE;

SPARTA         PTCLDY    62  51  68 S14       29.86S
6HR MIN TEMP:  61; 6HR MAX TEMP:  66;

VIROQUA        CLEAR     60  52  74 S14       29.87F
6HR MIN TEMP:  59; 6HR MAX TEMP:  63;

BOSCOBEL       MOCLDY    65  51  60 S6G17     29.90R
6HR MIN TEMP:  63; 6HR MAX TEMP:  67;

PRAIRIE DU CHI MOCLDY    63  49  61 SE9       29.87S
6HR MIN TEMP:  63; 6HR MAX TEMP:  65;

PLATTEVILLE    CLOUDY    62  52  71 S18G25    29.92F
6HR MIN TEMP:  60; 6HR MAX TEMP:  63;

$$

WIZ056-057-062-063-064-067-068-211300-
SOUTH CENTRAL WISCONSIN

CITY           SKY/WX    TMP DP  RH WIND       PRES   REMARKS
REEDSBURG      PTCLDY    60  50  69 S12       29.91S
6HR MIN TEMP:  60; 6HR MAX TEMP:  65;

BARABOO/DELLS  PTCLDY    59  48  67 S16       29.92S
6HR MIN TEMP:  59; 6HR MAX TEMP:  64;

LONE ROCK      MOCLDY    61  52  72 VRB7      29.91F
6HR MIN TEMP:  58; 6HR MAX TEMP:  67;

MINERAL POINT  CLOUDY    59  52  77 SE13      29.93S
MADISON        MOCLDY    58  50  75 S10       29.95S
6HR MIN TEMP:  58; 6HR MAX TEMP:  64; 6HR PCP: TRACE;

MIDDLETON      PTCLDY    61  50  67 S16G23    29.95S
6HR MIN TEMP:  61; 6HR MAX TEMP:  65;

WATERTOWN      PTCLDY    58  51  78 S7        29.98S
6HR MIN TEMP:  57; 6HR MAX TEMP:  63;

MONROE         PTCLDY    59  48  67 S17       29.97R
JANESVILLE     PTCLDY    61  50  67 S12G17    29.98S
$$

WIZ051-052-058>065-066-070>072-211300-
SOUTHEAST WISCONSIN

CITY           SKY/WX    TMP DP  RH WIND       PRES   REMARKS
MILWAUKEE      CLOUDY    61  50  67 S10       30.01F
6HR MIN TEMP:  61; 6HR MAX TEMP:  66; 6HR PCP: TRACE;

WAUKESHA       CLEAR     59  46  63 S8        30.01F
MILWAUKEE/TIMM CLOUDY    59  45  58 S6        30.01F
RACINE         PTCLDY    59  50  72 S7        30.04S
6HR MIN TEMP:  59; 6HR MAX TEMP:  66;

BURLINGTON     MOCLDY    59  50  73 S8        30.02R
6HR MIN TEMP:  58; 6HR MAX TEMP:  63;

KENOSHA        PTCLDY    62  48  60 S9        30.03S
6HR MIN TEMP:  60; 6HR MAX TEMP:  66;

FOND DU LAC    PTCLDY    61  47  59 S10       29.95F
6HR MIN TEMP:  61; 6HR MAX TEMP:  66;

SHEBOYGAN      CLOUDY    58  50  75 S9        29.98F
6HR MIN TEMP:  55; 6HR MAX TEMP:  63;

WEST BEND      PTCLDY    59  45  58 S7        29.99F
JUNEAU         PTCLDY    57  49  73 SE10      29.97F
6HR MIN TEMP:  57; 6HR MAX TEMP:  62;

$$

LSZ147-162-211300-
LAKE SUPERIOR

STATION/POSITION TIME  TEMP    WIND        PRES    WAVE
                       AIR SEA DIR/SP/G            HT/PER
                 (UTC) (F)     (DEG/KT/KT) (MB)    (FT/S)
W MID LAKE BUOY  1050   58 52              1007.1F   1/ 4
DEVILS ISLAND    1200   63     160/ 10/ 15 1005.8F
SAXON HARBOR     1140   66     190/ 10/ 21 1006.8S
$$

LMZ867-665-643>646-211300-
LAKE MICHIGAN

STATION/POSITION TIME  TEMP    WIND        PRES    WAVE
                       AIR SEA DIR/SP/G            HT/PER
                 (UTC)



USA.gov is the U.S. government's official web portal to all federal, state and local government web resources and services.